Location: Chicago
(41.7813°N, 87.6051°W)
Time: 22:07:56
(UTC-06:00)

ISS - Visible Passes

Search period start: 24 February 2018 00:00
Search period end: 06 March 2018 00:00
Orbit: 402 x 407 km, 51.6° (Epoch: 25 February)

Date Brightness Start Highest point End Pass type
(mag) Time Alt. Az. Time Alt. Az. Time Alt. Az.
24 Feb -0.6 05:42:25 10° SSE 05:43:48 12° SE 05:45:13 10° ESE visible
26 Feb -1.8 05:32:39 10° SSW 05:35:31 28° SE 05:38:23 10° ENE visible
27 Feb -1.0 04:41:26 10° S 04:43:26 15° SE 04:45:27 10° E visible
28 Feb -3.6 05:24:31 13° SW 05:27:18 70° SE 05:30:34 10° ENE visible
01 Mar -2.6 04:34:47 34° SSE 04:35:05 35° SE 04:38:08 10° ENE visible
02 Mar -0.5 03:44:53 12° E 03:44:53 12° E 03:45:22 10° E visible
02 Mar -3.5 05:17:33 25° W 05:19:12 51° NNW 05:22:24 10° NE visible
03 Mar -3.1 04:27:32 53° ENE 04:27:32 53° ENE 04:30:08 10° NE visible
04 Mar -0.4 03:37:24 12° ENE 03:37:24 12° ENE 03:37:44 10° ENE visible
04 Mar -2.6 05:10:03 23° WNW 05:11:09 28° NNW 05:14:04 10° NE visible
05 Mar -2.2 04:19:50 30° NNE 04:19:50 30° NNE 04:21:50 10° NE visible
